ONEWEB-0717 (55178 NORAD) Tracking and Keplerian Element Data

This shows tracking and keplerian element data for the satellite.

Feedback or suggestion? Click here.




ElementValue
Catalog55178
NameONEWEB-0717
Epoch Orbit1119
Epoch Day84.91054522
Epoch Year2023
RAAN253.6983
Inclination86.6176
Eccentricity0.0008232
Argument of Perigee332.4839
Mean Anonmoly27.5938
Mean Motion14.65740883
Decay Rate3.161E-05
L11 55178U 23004AQ 23084.91054522 .00003161 00000+0 57623-3 0 9996
L22 55178 86.6176 253.6983 0008232 332.4839 27.5938 14.65740883 11197



Live tracking and technical data element details for ONEWEB-0717 (NORAD 55178). ONEWEB-0717 can be tracked NOW for your location showing map with azimuth and elevation plus other details from your city location.







IsCatalogInMostPopularTable: catalog: 55178, numindb: 12
Update: records affected: 1



GetName: 55178 ONEWEB-0717

Hit Count: updated at: Mon, 27 Mar 2023 06:12:25 GMT